Time,TemperatureF,DewpointF,PressureIn,WindDirection,WindDirectionDegrees,WindSpeedMPH,WindSpeedGustMPH,Humidity,HourlyPrecipIn,Conditions,Clouds,dailyrainin,SoftwareType,DateUTC
2013-03-31 00:07:00,36.7,22.9,30.05,WNW,288,1.0,10.0,57,0.00,,,0.00,Wunderground v.1.15,2013-03-31 06:07:00,
2013-03-31 00:17:00,36.8,22.6,30.05,West,270,1.0,10.0,56,0.00,,,0.00,Wunderground v.1.15,2013-03-31 06:17:00,
2013-03-31 00:22:00,36.5,22.7,30.05,West,273,0.0,10.0,57,0.00,,,0.00,Wunderground v.1.15,2013-03-31 06:22:00,
2013-03-31 00:27:00,36.9,23.1,30.05,West,271,0.0,10.0,57,0.00,,,0.00,Wunderground v.1.15,2013-03-31 06:27:00,
2013-03-31 00:32:00,36.7,22.9,30.05,WNW,287,1.0,10.0,57,0.00,,,0.00,Wunderground v.1.15,2013-03-31 06:32:00,
2013-03-31 00:41:00,36.0,22.6,30.05,WSW,238,0.0,10.0,58,0.00,,,0.00,Wunderground v.1.15,2013-03-31 06:41:00,
2013-03-31 00:47:00,35.6,22.7,30.05,WNW,293,0.0,10.0,59,0.00,,,0.00,Wunderground v.1.15,2013-03-31 06:47:00,
2013-03-31 00:57:00,35.2,22.7,30.05,West,269,0.0,10.0,60,0.00,,,0.00,Wunderground v.1.15,2013-03-31 06:57:00,
2013-03-31 01:02:00,35.1,22.6,30.05,WSW,256,1.0,1.0,60,0.00,,,0.00,Wunderground v.1.15,2013-03-31 07:02:00,
2013-03-31 01:07:00,34.9,22.4,30.05,WSW,253,0.0,10.0,60,0.00,,,0.00,Wunderground v.1.15,2013-03-31 07:07:00,
2013-03-31 01:12:00,34.6,22.5,30.05,WSW,255,0.0,10.0,61,0.00,,,0.00,Wunderground v.1.15,2013-03-31 07:12:00,
2013-03-31 01:17:00,35.1,22.2,30.05,West,274,0.0,10.0,59,0.00,,,0.00,Wunderground v.1.15,2013-03-31 07:17:00,
2013-03-31 01:26:00,34.3,22.2,30.05,South,177,0.0,10.0,61,0.00,,,0.00,Wunderground v.1.15,2013-03-31 07:26:00,
2013-03-31 01:31:00,34.2,22.1,30.04,West,263,0.0,10.0,61,0.00,,,0.00,Wunderground v.1.15,2013-03-31 07:31:00,
2013-03-31 01:37:00,34.1,22.0,30.04,WNW,303,0.0,10.0,61,0.00,,,0.00,Wunderground v.1.15,2013-03-31 07:37:00,
2013-03-31 01:42:00,34.4,21.9,30.04,ENE,73,0.0,10.0,60,0.00,,,0.00,Wunderground v.1.15,2013-03-31 07:42:00,
2013-03-31 01:47:00,34.3,22.2,30.04,East,81,0.0,10.0,61,0.00,,,0.00,Wunderground v.1.15,2013-03-31 07:47:00,
2013-03-31 01:52:00,34.1,22.0,30.04,ESE,107,0.0,10.0,61,0.00,,,0.00,Wunderground v.1.15,2013-03-31 07:52:00,
2013-03-31 02:01:00,34.4,21.9,30.04,NW,308,1.0,1.0,60,0.00,,,0.00,Wunderground v.1.15,2013-03-31 08:01:00,
2013-03-31 02:07:00,34.2,21.7,30.04,West,267,0.0,10.0,60,0.00,,,0.00,Wunderground v.1.15,2013-03-31 08:07:00,
2013-03-31 02:12:00,34.1,22.0,30.04,SW,214,0.0,10.0,61,0.00,,,0.00,Wunderground v.1.15,2013-03-31 08:12:00,
2013-03-31 02:17:00,33.9,21.9,30.04,SW,214,0.0,10.0,61,0.00,,,0.00,Wunderground v.1.15,2013-03-31 08:17:00,
2013-03-31 02:27:00,33.6,21.6,30.03,SW,222,0.0,10.0,61,0.00,,,0.00,Wunderground v.1.15,2013-03-31 08:27:00,
2013-03-31 02:32:00,34.0,22.0,30.03,West,274,0.0,10.0,61,0.00,,,0.00,Wunderground v.1.15,2013-03-31 08:32:00,
2013-03-31 02:37:00,34.0,22.3,30.03,WNW,300,1.0,10.0,62,0.00,,,0.00,Wunderground v.1.15,2013-03-31 08:37:00,
2013-03-31 02:46:00,33.7,22.1,30.03,SE,146,1.0,10.0,62,0.00,,,0.00,Wunderground v.1.15,2013-03-31 08:46:00,
2013-03-31 02:52:00,33.5,21.9,30.03,SSW,203,1.0,1.0,62,0.00,,,0.00,Wunderground v.1.15,2013-03-31 08:52:00,
2013-03-31 02:57:00,33.3,22.1,30.03,SSE,148,1.0,10.0,63,0.00,,,0.00,Wunderground v.1.15,2013-03-31 08:57:00,
2013-03-31 03:06:00,33.5,21.9,30.02,WNW,290,1.0,10.0,62,0.00,,,0.00,Wunderground v.1.15,2013-03-31 09:06:00,
2013-03-31 03:11:00,34.4,22.3,30.03,WSW,245,1.0,1.0,61,0.00,,,0.00,Wunderground v.1.15,2013-03-31 09:11:00,
2013-03-31 03:17:00,33.6,22.0,30.03,West,268,0.0,10.0,62,0.00,,,0.00,Wunderground v.1.15,2013-03-31 09:17:00,
2013-03-31 03:26:00,33.9,22.6,30.02,WNW,288,0.0,10.0,63,0.00,,,0.00,Wunderground v.1.15,2013-03-31 09:26:00,
2013-03-31 03:31:00,33.5,21.9,30.02,WNW,288,0.0,10.0,62,0.00,,,0.00,Wunderground v.1.15,2013-03-31 09:31:00,
2013-03-31 03:36:00,33.1,21.9,30.02,South,190,0.0,10.0,63,0.00,,,0.00,Wunderground v.1.15,2013-03-31 09:36:00,
2013-03-31 03:42:00,32.4,21.6,30.02,South,190,0.0,10.0,64,0.00,,,0.00,Wunderground v.1.15,2013-03-31 09:42:00,
2013-03-31 03:47:00,32.1,21.7,30.02,South,188,0.0,10.0,65,0.00,,,0.00,Wunderground v.1.15,2013-03-31 09:47:00,
2013-03-31 03:52:00,32.6,21.8,30.02,South,188,0.0,10.0,64,0.00,,,0.00,Wunderground v.1.15,2013-03-31 09:52:00,
2013-03-31 03:57:00,32.1,21.7,30.02,WSW,246,0.0,10.0,65,0.00,,,0.00,Wunderground v.1.15,2013-03-31 09:57:00,
2013-03-31 04:02:00,32.0,21.6,30.02,ESE,110,0.0,10.0,65,0.00,,,0.00,Wunderground v.1.15,2013-03-31 10:02:00,
2013-03-31 04:11:00,31.3,21.6,30.02,SE,142,0.0,10.0,67,0.00,,,0.00,Wunderground v.1.15,2013-03-31 10:11:00,
2013-03-31 04:16:00,31.7,21.6,30.02,SE,136,1.0,10.0,66,0.00,,,0.00,Wunderground v.1.15,2013-03-31 10:16:00,
2013-03-31 04:22:00,31.5,21.4,30.02,SW,226,1.0,1.0,66,0.00,,,0.00,Wunderground v.1.15,2013-03-31 10:22:00,
2013-03-31 04:31:00,31.6,21.5,30.02,ESE,104,0.0,10.0,66,0.00,,,0.00,Wunderground v.1.15,2013-03-31 10:31:00,
2013-03-31 04:36:00,31.4,21.7,30.03,SW,231,0.0,10.0,67,0.00,,,0.00,Wunderground v.1.15,2013-03-31 10:36:00,
2013-03-31 04:42:00,31.3,22.0,30.02,ENE,65,0.0,10.0,68,0.00,,,0.00,Wunderground v.1.15,2013-03-31 10:42:00,
2013-03-31 04:47:00,31.2,21.9,30.02,West,274,0.0,10.0,68,0.00,,,0.00,Wunderground v.1.15,2013-03-31 10:47:00,
2013-03-31 04:52:00,30.9,21.6,30.02,SW,232,0.0,10.0,68,0.00,,,0.00,Wunderground v.1.15,2013-03-31 10:52:00,
2013-03-31 04:57:00,30.7,21.7,30.03,WSW,246,0.0,10.0,69,0.00,,,0.00,Wunderground v.1.15,2013-03-31 10:57:00,
2013-03-31 05:07:00,30.5,21.9,30.03,West,266,0.0,10.0,70,0.00,,,0.00,Wunderground v.1.15,2013-03-31 11:07:00,
2013-03-31 05:12:00,30.4,22.1,30.03,West,260,0.0,10.0,71,0.00,,,0.00,Wunderground v.1.15,2013-03-31 11:12:00,
2013-03-31 05:21:00,30.2,21.6,30.03,WSW,243,0.0,10.0,70,0.00,,,0.00,Wunderground v.1.15,2013-03-31 11:21:00,
2013-03-31 05:27:00,29.8,21.5,30.03,WSW,251,0.0,10.0,71,0.00,,,0.00,Wunderground v.1.15,2013-03-31 11:27:00,
2013-03-31 05:36:00,29.8,21.5,30.04,West,260,0.0,10.0,71,0.00,,,0.00,Wunderground v.1.15,2013-03-31 11:36:00,
2013-03-31 05:41:00,29.4,21.2,30.04,SW,226,0.0,10.0,71,0.00,,,0.00,Wunderground v.1.15,2013-03-31 11:41:00,
2013-03-31 05:46:00,29.1,20.9,30.04,SW,225,0.0,10.0,71,0.00,,,0.00,Wunderground v.1.15,2013-03-31 11:46:00,
2013-03-31 05:52:00,29.2,21.3,30.04,WSW,248,0.0,10.0,72,0.00,,,0.00,Wunderground v.1.15,2013-03-31 11:52:00,
2013-03-31 05:57:00,29.2,21.3,30.04,WSW,252,1.0,10.0,72,0.00,,,0.00,Wunderground v.1.15,2013-03-31 11:57:00,
2013-03-31 06:02:00,29.2,21.0,30.04,West,277,1.0,10.0,71,0.00,,,0.00,Wunderground v.1.15,2013-03-31 12:02:00,
2013-03-31 06:11:00,29.4,20.8,30.04,West,262,0.0,10.0,70,0.00,,,0.00,Wunderground v.1.15,2013-03-31 12:11:00,
2013-03-31 06:17:00,29.4,20.8,30.04,SW,232,1.0,10.0,70,0.00,,,0.00,Wunderground v.1.15,2013-03-31 12:17:00,
2013-03-31 06:22:00,29.4,20.8,30.05,West,274,1.0,1.0,70,0.00,,,0.00,Wunderground v.1.15,2013-03-31 12:22:00,
2013-03-31 06:27:00,29.4,20.8,30.05,West,259,0.0,10.0,70,0.00,,,0.00,Wunderground v.1.15,2013-03-31 12:27:00,
2013-03-31 06:32:00,29.5,20.6,30.05,WSW,243,1.0,10.0,69,0.00,,,0.00,Wunderground v.1.15,2013-03-31 12:32:00,
2013-03-31 06:42:00,29.5,20.6,30.05,West,269,2.0,2.0,69,0.00,,,0.00,Wunderground v.1.15,2013-03-31 12:42:00,
2013-03-31 06:52:00,29.5,20.2,30.05,WNW,296,3.0,3.0,68,0.00,,,0.00,Wunderground v.1.15,2013-03-31 12:52:00,
2013-03-31 06:57:00,29.3,20.0,30.05,WNW,288,3.0,10.0,68,0.00,,,0.00,Wunderground v.1.15,2013-03-31 12:57:00,
2013-03-31 07:07:00,29.2,20.3,30.05,West,266,3.0,10.0,69,0.00,,,0.00,Wunderground v.1.15,2013-03-31 13:07:00,
2013-03-31 07:17:00,29.2,20.3,30.05,West,277,3.0,10.0,69,0.00,,,0.00,Wunderground v.1.15,2013-03-31 13:17:00,
2013-03-31 07:22:00,29.3,20.4,30.06,WNW,285,3.0,10.0,69,0.00,,,0.00,Wunderground v.1.15,2013-03-31 13:22:00,
2013-03-31 07:27:00,29.5,20.2,30.06,West,259,4.0,10.0,68,0.00,,,0.00,Wunderground v.1.15,2013-03-31 13:27:00,
2013-03-31 07:32:00,30.1,20.5,30.06,WNW,285,4.0,10.0,67,0.00,,,0.00,Wunderground v.1.15,2013-03-31 13:32:00,
2013-03-31 07:41:00,30.6,20.6,30.06,West,270,4.0,4.0,66,0.00,,,0.00,Wunderground v.1.15,2013-03-31 13:41:00,
2013-03-31 07:46:00,31.1,20.7,30.06,WNW,285,4.0,10.0,65,0.00,,,0.00,Wunderground v.1.15,2013-03-31 13:46:00,
2013-03-31 07:52:00,31.7,20.9,30.06,SW,218,2.0,2.0,64,0.00,,,0.00,Wunderground v.1.15,2013-03-31 13:52:00,
2013-03-31 08:02:00,32.7,21.1,30.07,WNW,285,2.0,10.0,62,0.00,,,0.00,Wunderground v.1.15,2013-03-31 14:02:00,
2013-03-31 08:07:00,32.4,21.2,30.07,West,276,2.0,10.0,63,0.00,,,0.00,Wunderground v.1.15,2013-03-31 14:07:00,
2013-03-31 08:12:00,32.0,21.2,30.07,NW,308,3.0,3.0,64,0.00,,,0.00,Wunderground v.1.15,2013-03-31 14:12:00,
2013-03-31 08:17:00,32.1,21.3,30.07,WNW,296,3.0,10.0,64,0.00,,,0.00,Wunderground v.1.15,2013-03-31 14:17:00,
2013-03-31 08:27:00,32.8,21.2,30.07,WNW,287,3.0,10.0,62,0.00,,,0.00,Wunderground v.1.15,2013-03-31 14:27:00,
2013-03-31 08:32:00,33.4,21.8,30.07,West,278,3.0,10.0,62,0.00,,,0.00,Wunderground v.1.15,2013-03-31 14:32:00,
2013-03-31 08:37:00,34.0,21.6,30.07,West,278,3.0,10.0,60,0.00,,,0.00,Wunderground v.1.15,2013-03-31 14:37:00,
2013-03-31 08:46:00,35.1,22.2,30.07,West,281,3.0,10.0,59,0.00,,,0.00,Wunderground v.1.15,2013-03-31 14:46:00,
2013-03-31 08:51:00,35.6,21.9,30.07,West,274,3.0,10.0,57,0.00,,,0.00,Wunderground v.1.15,2013-03-31 14:51:00,
2013-03-31 08:57:00,36.1,21.9,30.07,WSW,257,3.0,10.0,56,0.00,,,0.00,Wunderground v.1.15,2013-03-31 14:57:00,
2013-03-31 09:02:00,36.7,22.0,30.07,WNW,288,3.0,10.0,55,0.00,,,0.00,Wunderground v.1.15,2013-03-31 15:02:00,
2013-03-31 09:12:00,38.0,22.8,30.07,West,262,2.0,10.0,54,0.00,,,0.00,Wunderground v.1.15,2013-03-31 15:12:00,
2013-03-31 09:17:00,38.5,23.3,30.07,West,271,2.0,10.0,54,0.00,,,0.00,Wunderground v.1.15,2013-03-31 15:17:00,
2013-03-31 09:26:00,40.0,23.3,30.07,West,276,1.0,10.0,51,0.00,,,0.00,Wunderground v.1.15,2013-03-31 15:26:00,
2013-03-31 09:36:00,42.1,24.8,30.07,NE,56,0.0,10.0,50,0.00,,,0.00,Wunderground v.1.15,2013-03-31 15:36:00,
2013-03-31 09:42:00,43.6,25.2,30.06,East,98,0.0,10.0,48,0.00,,,0.00,Wunderground v.1.15,2013-03-31 15:42:00,
2013-03-31 09:47:00,43.8,24.9,30.06,SE,125,1.0,10.0,47,0.00,,,0.00,Wunderground v.1.15,2013-03-31 15:47:00,
2013-03-31 09:56:00,44.5,25.0,30.06,East,87,1.0,2.0,46,0.00,,,0.00,Wunderground v.1.15,2013-03-31 15:56:00,
2013-03-31 10:01:00,44.5,25.5,30.06,NE,47,2.0,2.0,47,0.00,,,0.00,Wunderground v.1.15,2013-03-31 16:01:00,
2013-03-31 10:06:00,44.6,25.6,30.06,NE,53,3.0,3.0,47,0.00,,,0.00,Wunderground v.1.15,2013-03-31 16:06:00,
2013-03-31 10:12:00,44.9,25.9,30.06,North,1,3.0,3.0,47,0.00,,,0.00,Wunderground v.1.15,2013-03-31 16:12:00,
2013-03-31 10:17:00,45.1,25.5,30.06,ENE,58,2.0,10.0,46,0.00,,,0.00,Wunderground v.1.15,2013-03-31 16:17:00,
2013-03-31 10:27:00,44.9,25.3,30.05,NE,50,3.0,8.0,46,0.00,,,0.00,Wunderground v.1.15,2013-03-31 16:27:00,
2013-03-31 10:37:00,44.9,25.3,30.05,NE,37,4.0,10.0,46,0.00,,,0.00,Wunderground v.1.15,2013-03-31 16:37:00,
2013-03-31 10:42:00,45.3,25.2,30.05,ENE,57,3.0,10.0,45,0.00,,,0.00,Wunderground v.1.15,2013-03-31 16:42:00,
2013-03-31 10:47:00,45.4,25.3,30.05,NE,50,4.0,10.0,45,0.00,,,0.00,Wunderground v.1.15,2013-03-31 16:47:00,
2013-03-31 10:56:00,45.5,25.4,30.05,ENE,61,4.0,10.0,45,0.00,,,0.00,Wunderground v.1.15,2013-03-31 16:56:00,
2013-03-31 11:01:00,45.9,25.7,30.05,NNW,328,3.0,3.0,45,0.00,,,0.00,Wunderground v.1.15,2013-03-31 17:01:00,
2013-03-31 11:07:00,46.3,26.1,30.05,NE,48,3.0,6.0,45,0.00,,,0.00,Wunderground v.1.15,2013-03-31 17:07:00,
2013-03-31 11:12:00,46.6,25.8,30.06,ENE,75,3.0,10.0,44,0.00,,,0.00,Wunderground v.1.15,2013-03-31 17:12:00,
2013-03-31 11:17:00,46.8,26.0,30.05,ENE,77,4.0,10.0,44,0.00,,,0.00,Wunderground v.1.15,2013-03-31 17:17:00,
2013-03-31 11:22:00,47.1,25.7,30.05,ENE,68,4.0,4.0,43,0.00,,,0.00,Wunderground v.1.15,2013-03-31 17:22:00,
2013-03-31 11:31:00,47.7,25.1,30.05,ENE,59,3.0,10.0,41,0.00,,,0.00,Wunderground v.1.15,2013-03-31 17:31:00,
2013-03-31 11:36:00,47.2,25.3,30.05,ESE,103,4.0,10.0,42,0.00,,,0.00,Wunderground v.1.15,2013-03-31 17:36:00,
2013-03-31 11:42:00,48.0,25.4,30.05,ENE,60,3.0,10.0,41,0.00,,,0.00,Wunderground v.1.15,2013-03-31 17:42:00,
2013-03-31 11:47:00,48.2,25.0,30.05,NE,56,2.0,10.0,40,0.00,,,0.00,Wunderground v.1.15,2013-03-31 17:47:00,
2013-03-31 11:52:00,48.4,24.6,30.05,North,11,2.0,10.0,39,0.00,,,0.00,Wunderground v.1.15,2013-03-31 17:52:00,
2013-03-31 11:57:00,48.4,24.6,30.05,East,82,2.0,10.0,39,0.00,,,0.00,Wunderground v.1.15,2013-03-31 17:57:00,
2013-03-31 12:07:00,49.3,25.4,30.05,NE,56,3.0,10.0,39,0.00,,,0.00,Wunderground v.1.15,2013-03-31 18:07:00,
2013-03-31 12:12:00,49.7,25.1,30.05,ESE,122,3.0,10.0,38,0.00,,,0.00,Wunderground v.1.15,2013-03-31 18:12:00,
2013-03-31 12:17:00,49.8,25.2,30.05,East,94,2.0,10.0,38,0.00,,,0.00,Wunderground v.1.15,2013-03-31 18:17:00,
2013-03-31 12:27:00,50.3,24.3,30.05,ENE,77,3.0,10.0,36,0.00,,,0.00,Wunderground v.1.15,2013-03-31 18:27:00,
2013-03-31 12:32:00,50.7,24.0,30.05,NE,45,3.0,3.0,35,0.00,,,0.00,Wunderground v.1.15,2013-03-31 18:32:00,
2013-03-31 12:37:00,50.6,23.2,30.04,NE,56,3.0,4.0,34,0.00,,,0.00,Wunderground v.1.15,2013-03-31 18:37:00,
2013-03-31 12:47:00,52.1,23.1,30.04,West,272,2.0,10.0,32,0.00,,,0.00,Wunderground v.1.15,2013-03-31 18:47:00,
2013-03-31 12:56:00,52.6,23.5,30.03,NE,36,1.0,10.0,32,0.00,,,0.00,Wunderground v.1.15,2013-03-31 18:56:00,
2013-03-31 13:02:00,53.2,23.3,30.03,NNE,30,2.0,10.0,31,0.00,,,0.00,Wunderground v.1.15,2013-03-31 19:02:00,
2013-03-31 13:06:00,53.1,23.2,30.03,NE,56,3.0,10.0,31,0.00,,,0.00,Wunderground v.1.15,2013-03-31 19:06:00,
2013-03-31 13:12:00,52.5,21.9,30.03,NW,317,2.0,2.0,30,0.00,,,0.00,Wunderground v.1.15,2013-03-31 19:12:00,
2013-03-31 13:17:00,53.2,22.5,30.02,NE,35,3.0,5.0,30,0.00,,,0.00,Wunderground v.1.15,2013-03-31 19:17:00,
2013-03-31 13:22:00,52.8,22.2,30.02,ESE,121,4.0,4.0,30,0.00,,,0.00,Wunderground v.1.15,2013-03-31 19:22:00,
2013-03-31 13:31:00,52.8,22.2,30.02,NE,49,4.0,4.0,30,0.00,,,0.00,Wunderground v.1.15,2013-03-31 19:31:00,
2013-03-31 13:42:00,53.4,23.5,30.01,East,82,3.0,3.0,31,0.00,,,0.00,Wunderground v.1.15,2013-03-31 19:42:00,
2013-03-31 13:47:00,54.0,23.2,30.01,NE,53,3.0,10.0,30,0.00,,,0.00,Wunderground v.1.15,2013-03-31 19:47:00,
2013-03-31 13:56:00,54.2,24.2,30.01,NE,37,4.0,10.0,31,0.00,,,0.00,Wunderground v.1.15,2013-03-31 19:56:00,
2013-03-31 14:01:00,54.7,23.8,30.01,NE,41,3.0,10.0,30,0.00,,,0.00,Wunderground v.1.15,2013-03-31 20:01:00,
2013-03-31 14:07:00,55.2,23.5,30.01,NE,40,3.0,10.0,29,0.00,,,0.00,Wunderground v.1.15,2013-03-31 20:07:00,
2013-03-31 14:12:00,55.3,22.7,30.00,East,84,3.0,3.0,28,0.00,,,0.00,Wunderground v.1.15,2013-03-31 20:12:00,
2013-03-31 14:17:00,55.7,23.9,30.00,North,5,2.0,10.0,29,0.00,,,0.00,Wunderground v.1.15,2013-03-31 20:17:00,
2013-03-31 14:27:00,55.6,23.0,30.00,SE,128,4.0,10.0,28,0.00,,,0.00,Wunderground v.1.15,2013-03-31 20:27:00,
2013-03-31 14:32:00,55.0,23.3,29.99,ENE,59,4.0,4.0,29,0.00,,,0.00,Wunderground v.1.15,2013-03-31 20:32:00,
2013-03-31 14:37:00,55.8,23.1,29.99,NE,36,3.0,10.0,28,0.00,,,0.00,Wunderground v.1.15,2013-03-31 20:37:00,
2013-03-31 14:42:00,56.7,23.0,29.99,North,352,2.0,2.0,27,0.00,,,0.00,Wunderground v.1.15,2013-03-31 20:42:00,
2013-03-31 14:51:00,57.2,23.5,29.99,NE,46,2.0,10.0,27,0.00,,,0.00,Wunderground v.1.15,2013-03-31 20:51:00,
2013-03-31 14:56:00,56.2,23.5,29.99,NE,56,4.0,10.0,28,0.00,,,0.00,Wunderground v.1.15,2013-03-31 20:56:00,
2013-03-31 15:02:00,56.3,23.6,29.99,North,8,4.0,4.0,28,0.00,,,0.00,Wunderground v.1.15,2013-03-31 21:02:00,
2013-03-31 15:07:00,56.7,23.9,29.98,NE,41,2.0,10.0,28,0.00,,,0.00,Wunderground v.1.15,2013-03-31 21:07:00,
2013-03-31 15:12:00,57.8,24.0,29.98,NE,37,2.0,10.0,27,0.00,,,0.00,Wunderground v.1.15,2013-03-31 21:12:00,
2013-03-31 15:21:00,57.4,23.7,29.98,SW,230,2.0,2.0,27,0.00,,,0.00,Wunderground v.1.15,2013-03-31 21:21:00,
2013-03-31 15:26:00,57.8,24.0,29.98,NNE,22,2.0,7.0,27,0.00,,,0.00,Wunderground v.1.15,2013-03-31 21:26:00,
2013-03-31 15:31:00,57.2,23.5,29.98,ENE,57,4.0,4.0,27,0.00,,,0.00,Wunderground v.1.15,2013-03-31 21:31:00,
2013-03-31 15:37:00,57.3,23.6,29.97,ENE,74,4.0,5.0,27,0.00,,,0.00,Wunderground v.1.15,2013-03-31 21:37:00,
2013-03-31 15:46:00,57.5,24.6,29.97,WNW,286,3.0,10.0,28,0.00,,,0.00,Wunderground v.1.15,2013-03-31 21:46:00,
2013-03-31 15:51:00,58.7,25.6,29.97,WNW,285,1.0,1.0,28,0.00,,,0.00,Wunderground v.1.15,2013-03-31 21:51:00,
2013-03-31 15:57:00,59.0,24.1,29.96,NE,49,2.0,2.0,26,0.00,,,0.00,Wunderground v.1.15,2013-03-31 21:57:00,
2013-03-31 16:02:00,58.4,24.5,29.96,ENE,62,3.0,10.0,27,0.00,,,0.00,Wunderground v.1.15,2013-03-31 22:02:00,
2013-03-31 16:07:00,57.9,24.1,29.96,ENE,65,4.0,10.0,27,0.00,,,0.00,Wunderground v.1.15,2013-03-31 22:07:00,
2013-03-31 16:12:00,57.0,24.2,29.96,ESE,105,5.0,5.0,28,0.00,,,0.00,Wunderground v.1.15,2013-03-31 22:12:00,
2013-03-31 16:17:00,57.4,24.5,29.95,North,356,3.0,10.0,28,0.00,,,0.00,Wunderground v.1.15,2013-03-31 22:17:00,
2013-03-31 16:26:00,58.8,25.7,29.95,NNE,30,2.0,10.0,28,0.00,,,0.00,Wunderground v.1.15,2013-03-31 22:26:00,
2013-03-31 16:32:00,58.8,25.7,29.95,NW,325,3.0,10.0,28,0.00,,,0.00,Wunderground v.1.15,2013-03-31 22:32:00,
2013-03-31 16:37:00,58.8,26.6,29.95,NW,308,3.0,10.0,29,0.00,,,0.00,Wunderground v.1.15,2013-03-31 22:37:00,
2013-03-31 16:42:00,58.7,26.5,29.94,NNE,30,3.0,10.0,29,0.00,,,0.00,Wunderground v.1.15,2013-03-31 22:42:00,
2013-03-31 16:47:00,58.9,28.3,29.94,NE,41,4.0,10.0,31,0.00,,,0.00,Wunderground v.1.15,2013-03-31 22:47:00,
2013-03-31 16:52:00,58.8,28.2,29.94,NW,321,4.0,4.0,31,0.00,,,0.00,Wunderground v.1.15,2013-03-31 22:52:00,
2013-03-31 17:02:00,58.3,27.8,29.94,NE,53,5.0,10.0,31,0.00,,,0.00,Wunderground v.1.15,2013-03-31 23:02:00,
2013-03-31 17:07:00,57.5,27.8,29.94,ENE,58,6.0,10.0,32,0.00,,,0.00,Wunderground v.1.15,2013-03-31 23:07:00,
2013-03-31 17:16:00,57.6,27.2,29.94,ENE,77,5.0,10.0,31,0.00,,,0.00,Wunderground v.1.15,2013-03-31 23:16:00,
2013-03-31 17:21:00,57.0,27.4,29.94,NE,45,5.0,5.0,32,0.00,,,0.00,Wunderground v.1.15,2013-03-31 23:21:00,
2013-03-31 17:26:00,57.0,27.4,29.94,ENE,57,5.0,10.0,32,0.00,,,0.00,Wunderground v.1.15,2013-03-31 23:26:00,
2013-03-31 17:32:00,57.1,27.5,29.94,ENE,63,6.0,6.0,32,0.00,,,0.00,Wunderground v.1.15,2013-03-31 23:32:00,
2013-03-31 17:37:00,57.1,27.5,29.93,NNE,26,5.0,10.0,32,0.00,,,0.00,Wunderground v.1.15,2013-03-31 23:37:00,
2013-03-31 17:46:00,56.5,27.0,29.93,NE,43,5.0,9.0,32,0.00,,,0.00,Wunderground v.1.15,2013-03-31 23:46:00,
2013-03-31 17:51:00,56.1,27.4,29.93,NE,49,6.0,6.0,33,0.00,,,0.00,Wunderground v.1.15,2013-03-31 23:51:00,
2013-03-31 17:57:00,56.4,27.6,29.93,WNW,291,5.0,10.0,33,0.00,,,0.00,Wunderground v.1.15,2013-03-31 23:57:00,
2013-03-31 18:07:00,56.1,27.4,29.93,ENE,58,4.0,10.0,33,0.00,,,0.00,Wunderground v.1.15,2013-04-01 00:07:00,
2013-03-31 18:12:00,56.0,28.0,29.93,NE,47,4.0,10.0,34,0.00,,,0.00,Wunderground v.1.15,2013-04-01 00:12:00,
2013-03-31 18:17:00,55.8,27.8,29.93,NE,34,5.0,10.0,34,0.00,,,0.00,Wunderground v.1.15,2013-04-01 00:17:00,
2013-03-31 18:26:00,55.6,27.6,29.93,NE,51,5.0,10.0,34,0.00,,,0.00,Wunderground v.1.15,2013-04-01 00:26:00,
2013-03-31 18:32:00,55.4,27.5,29.93,NE,55,5.0,5.0,34,0.00,,,0.00,Wunderground v.1.15,2013-04-01 00:32:00,
2013-03-31 18:37:00,55.1,27.2,29.93,NNE,18,5.0,10.0,34,0.00,,,0.00,Wunderground v.1.15,2013-04-01 00:37:00,
2013-03-31 18:46:00,55.4,27.5,29.93,NE,41,3.0,6.0,34,0.00,,,0.00,Wunderground v.1.15,2013-04-01 00:46:00,
2013-03-31 18:52:00,55.2,27.3,29.93,ENE,70,3.0,3.0,34,0.00,,,0.00,Wunderground v.1.15,2013-04-01 00:52:00,
2013-03-31 18:57:00,54.9,27.7,29.93,NW,325,3.0,10.0,35,0.00,,,0.00,Wunderground v.1.15,2013-04-01 00:57:00,
2013-03-31 19:06:00,54.2,27.1,29.93,ENE,63,3.0,10.0,35,0.00,,,0.00,Wunderground v.1.15,2013-04-01 01:06:00,
2013-03-31 19:11:00,53.7,27.4,29.92,NNW,334,4.0,4.0,36,0.00,,,0.00,Wunderground v.1.15,2013-04-01 01:11:00,
2013-03-31 19:16:00,53.7,27.4,29.93,NNE,32,2.0,10.0,36,0.00,,,0.00,Wunderground v.1.15,2013-04-01 01:16:00,
2013-03-31 19:22:00,53.2,26.9,29.92,NE,34,3.0,3.0,36,0.00,,,0.00,Wunderground v.1.15,2013-04-01 01:22:00,
2013-03-31 19:27:00,52.9,27.3,29.92,NE,41,3.0,4.0,37,0.00,,,0.00,Wunderground v.1.15,2013-04-01 01:27:00,
2013-03-31 19:37:00,51.4,27.2,29.93,NNE,15,4.0,10.0,39,0.00,,,0.00,Wunderground v.1.15,2013-04-01 01:37:00,
2013-03-31 19:42:00,50.7,26.6,29.93,ENE,70,3.0,3.0,39,0.00,,,0.00,Wunderground v.1.15,2013-04-01 01:42:00,
2013-03-31 19:47:00,50.1,26.7,29.93,NE,51,3.0,10.0,40,0.00,,,0.00,Wunderground v.1.15,2013-04-01 01:47:00,
2013-03-31 19:52:00,49.7,26.9,29.93,ENE,59,2.0,2.0,41,0.00,,,0.00,Wunderground v.1.15,2013-04-01 01:52:00,
2013-03-31 19:57:00,49.3,27.7,29.93,ESE,114,0.0,10.0,43,0.00,,,0.00,Wunderground v.1.15,2013-04-01 01:57:00,
2013-03-31 20:02:00,48.9,26.8,29.93,East,93,0.0,10.0,42,0.00,,,0.00,Wunderground v.1.15,2013-04-01 02:02:00,
2013-03-31 20:11:00,47.9,27.0,29.93,ESE,108,1.0,1.0,44,0.00,,,0.00,Wunderground v.1.15,2013-04-01 02:11:00,
2013-03-31 20:17:00,47.6,26.7,29.94,ENE,59,1.0,2.0,44,0.00,,,0.00,Wunderground v.1.15,2013-04-01 02:17:00,
2013-03-31 20:26:00,47.0,26.7,29.94,East,96,2.0,10.0,45,0.00,,,0.00,Wunderground v.1.15,2013-04-01 02:26:00,
2013-03-31 20:31:00,46.6,26.4,29.94,NE,49,2.0,10.0,45,0.00,,,0.00,Wunderground v.1.15,2013-04-01 02:31:00,
2013-03-31 20:37:00,46.5,26.3,29.94,ESE,106,2.0,10.0,45,0.00,,,0.00,Wunderground v.1.15,2013-04-01 02:37:00,
2013-03-31 20:42:00,46.3,26.1,29.94,SSE,159,1.0,10.0,45,0.00,,,0.00,Wunderground v.1.15,2013-04-01 02:42:00,
2013-03-31 20:47:00,46.1,26.4,29.94,SSW,203,0.0,10.0,46,0.00,,,0.00,Wunderground v.1.15,2013-04-01 02:47:00,
2013-03-31 20:57:00,45.7,26.1,29.94,NW,311,1.0,10.0,46,0.00,,,0.00,Wunderground v.1.15,2013-04-01 02:57:00,
2013-03-31 21:07:00,45.5,25.9,29.95,SW,215,1.0,10.0,46,0.00,,,0.00,Wunderground v.1.15,2013-04-01 03:07:00,
2013-03-31 21:16:00,44.9,25.9,29.95,ESE,108,0.0,10.0,47,0.00,,,0.00,Wunderground v.1.15,2013-04-01 03:16:00,
2013-03-31 21:21:00,44.8,25.8,29.95,SE,132,0.0,10.0,47,0.00,,,0.00,Wunderground v.1.15,2013-04-01 03:21:00,
2013-03-31 21:27:00,44.5,26.5,29.95,South,169,1.0,10.0,49,0.00,,,0.00,Wunderground v.1.15,2013-04-01 03:27:00,
2013-03-31 21:32:00,44.0,26.0,29.95,South,172,0.0,10.0,49,0.00,,,0.00,Wunderground v.1.15,2013-04-01 03:32:00,
2013-03-31 21:42:00,43.9,26.0,29.96,West,273,0.0,10.0,49,0.00,,,0.00,Wunderground v.1.15,2013-04-01 03:42:00,
2013-03-31 21:52:00,43.3,25.9,29.96,West,260,1.0,10.0,50,0.00,,,0.00,Wunderground v.1.15,2013-04-01 03:52:00,
2013-03-31 21:57:00,43.0,26.1,29.96,West,261,1.0,10.0,51,0.00,,,0.00,Wunderground v.1.15,2013-04-01 03:57:00,
2013-03-31 22:01:00,42.5,26.1,29.96,NW,307,1.0,10.0,52,0.00,,,0.00,Wunderground v.1.15,2013-04-01 04:01:00,
2013-03-31 22:07:00,42.1,26.2,29.96,West,277,2.0,10.0,53,0.00,,,0.00,Wunderground v.1.15,2013-04-01 04:07:00,
2013-03-31 22:12:00,41.9,26.4,29.96,SW,226,1.0,10.0,54,0.00,,,0.00,Wunderground v.1.15,2013-04-01 04:12:00,
2013-03-31 22:17:00,41.4,26.0,29.96,South,179,0.0,10.0,54,0.00,,,0.00,Wunderground v.1.15,2013-04-01 04:17:00,
2013-03-31 22:22:00,40.9,26.0,29.96,West,278,0.0,10.0,55,0.00,,,0.00,Wunderground v.1.15,2013-04-01 04:22:00,
2013-03-31 22:27:00,40.7,25.8,29.96,SSW,210,1.0,10.0,55,0.00,,,0.00,Wunderground v.1.15,2013-04-01 04:27:00,
2013-03-31 22:32:00,40.4,25.9,29.96,SW,233,1.0,10.0,56,0.00,,,0.00,Wunderground v.1.15,2013-04-01 04:32:00,
2013-03-31 22:37:00,40.0,26.0,29.96,SW,231,0.0,10.0,57,0.00,,,0.00,Wunderground v.1.15,2013-04-01 04:37:00,
2013-03-31 22:42:00,39.5,25.9,29.97,ENE,59,1.0,1.0,58,0.00,,,0.00,Wunderground v.1.15,2013-04-01 04:42:00,
2013-03-31 22:52:00,39.2,25.6,29.97,ENE,60,0.0,10.0,58,0.00,,,0.00,Wunderground v.1.15,2013-04-01 04:52:00,
2013-03-31 23:02:00,38.6,25.9,29.97,ENE,60,0.0,10.0,60,0.00,,,0.00,Wunderground v.1.15,2013-04-01 05:02:00,
2013-03-31 23:07:00,38.2,25.9,29.97,NW,315,0.0,10.0,61,0.00,,,0.00,Wunderground v.1.15,2013-04-01 05:07:00,
2013-03-31 23:17:00,37.8,25.9,29.97,West,281,0.0,10.0,62,0.00,,,0.00,Wunderground v.1.15,2013-04-01 05:17:00,
2013-03-31 23:22:00,37.2,25.8,29.96,West,281,1.0,10.0,63,0.00,,,0.00,Wunderground v.1.15,2013-04-01 05:22:00,
2013-03-31 23:27:00,36.8,25.8,29.96,WSW,238,2.0,10.0,64,0.00,,,0.00,Wunderground v.1.15,2013-04-01 05:27:00,
2013-03-31 23:37:00,36.3,25.7,29.96,West,273,2.0,10.0,65,0.00,,,0.00,Wunderground v.1.15,2013-04-01 05:37:00,
2013-03-31 23:42:00,36.1,25.5,29.96,WNW,284,2.0,10.0,65,0.00,,,0.00,Wunderground v.1.15,2013-04-01 05:42:00,
2013-03-31 23:47:00,35.9,25.3,29.96,WSW,246,1.0,10.0,65,0.00,,,0.00,Wunderground v.1.15,2013-04-01 05:47:00,
2013-03-31 23:52:00,35.7,25.4,29.96,WSW,250,1.0,10.0,66,0.00,,,0.00,Wunderground v.1.15,2013-04-01 05:52:00,